Location: Hac?musa Deresi
(39.1694°N, 32.2508°E)
Time: 11:27:39
(UTC+00:00)

Okean O Rocket - Pass Details

Date: 22 April 2026
Orbit: 613 x 634 km, 98.0° (Epoch: 20 May)

Event Time Altitude Azimuth Distance (km) Brightness Sun altitude
Exits shadow 17:38:40 14° 88° (E) 1,730 3.3 -12.2°
Maximum altitude 17:40:04 16° 66° (ENE) 1,619 3.3 -12.5°
Drops below altitude 10° 17:42:44 10° 27° (NNE) 1,992 4.2 -12.9°
Sets 17:45:36 0° 7° (N) 2,898 5.3 -13.4°
